Temp
88 87 87 87 86 86 84 84 85 86 86 85 86 86 86 86 85 83 82 81 81 80 81 81 81 81 81 81 81 81 82 81 81 81 81 82 82 81 81 81 81 80 81 81 81 82 82 83 83 83 82 82 82 81 81 81 81 82 81 80 81 80 80
86 87 87 87 86 85 85 85 85 86 86 86 86 86 87 86 85 83 82 82 81 81 81 81 81 81 81 81 82 81 81 81 82 82 82 81 81 81 82 82 82 80 81 82 81 82 82 83 84 82 82 82 83 82 81 81 81 81 82 80 80 79 79
86 87 87 87 86 85 84 85 85 87 87 87 87 87 86 85 85 84 83 82 81 81 82 81 82 81 82 81 81 81 81 81 81 81 81 82 82 83 83 83 83 83 82 82 82 81 83 83 83 83 83 82 83 82 82 81 81 81 81 81 80 80 79
87 87 88 87 87 86 86 86 86 87 89 89 88 88 87 85 86 85 84 83 82 81 80 81 82 82 81 81 81 81 81 81 82 82 83 83 82 83 82 82 83 84 82 82 84 84 84 83 83 83 84 82 82 83 83 82 82 81 81 80 80 80 80
87 88 88 87 87 86 85 86 86 87 88 89 89 88 88 87 87 86 85 85 84 82 82 82 83 83 82 82 82 81 81 82 82 82 83 83 83 83 83 82 83 84 84 84 83 83 83 83 83 83 83 82 82 82 82 82 82 81 81 80 80 80 79
87 87 87 87 87 87 87 87 88 89 89 89 89 88 89 88 88 87 86 85 84 84 84 83 82 82 82 82 82 82 82 82 82 82 83 83 82 83 83 83 83 84 84 84 85 84 84 84 84 83 83 83 83 83 83 83 83 82 81 81 80 80 80
87 88 87 87 88 88 88 89 89 90 91 91 91 90 90 89 88 88 87 86 85 83 83 83 83 83 82 82 82 82 81 82 82 82 83 83 83 83 83 83 83 84 85 84 84 84 83 83 84 84 84 83 83 83 82 82 82 82 81 81 80 80 80
88 88 87 88 88 89 89 89 90 91 92 91 91 90 90 90 89 89 87 87 86 85 85 84 83 83 83 83 83 82 82 82 83 83 83 83 83 83 83 83 83 84 84 84 84 85 85 83 84 84 84 84 83 83 83 82 82 82 82 81 80 80 81
88 88 88 89 89 90 90 89 90 90 90 91 90 89 90 90 89 89 88 88 87 86 85 86 85 85 84 83 82 82 82 83 82 82 82 83 83 84 84 84 84 84 84 84 85 85 86 85 84 83 84 84 83 82 82 82 82 83 82 81 80 80 80
87 87 87 90 91 91 90 90 89 89 88 89 89 88 89 89 90 89 89 89 88 86 86 86 86 86 84 83 83 83 83 82 82 83 83 83 84 84 85 85 85 84 84 85 86 84 85 85 85 83 83 83 83 82 82 82 82 82 82 82 81 81 80
89 87 87 88 89 89 89 90 88 87 88 88 88 89 89 89 89 90 89 89 88 87 87 87 87 86 85 84 84 83 83 83 83 83 83 83 84 85 86 86 86 85 85 85 86 86 85 84 85 84 83 83 83 83 83 83 83 82 82 82 82 82 81
88 87 86 88 88 88 89 88 88 87 87 88 89 89 88 88 90 90 90 90 90 89 88 87 88 87 86 85 84 83 83 83 83 83 83 84 85 85 86 87 86 86 86 86 86 86 86 85 85 85 84 83 84 83 83 83 83 82 83 83 83 82 82
88 86 86 88 88 89 88 86 86 86 87 88 90 90 89 89 90 90 89 89 90 90 89 88 87 86 85 85 85 83 83 83 83 84 84 84 85 86 86 87 87 87 86 87 87 87 86 86 85 84 84 84 84 84 83 83 83 83 82 83 83 82 81
88 87 88 89 88 86 85 85 85 85 86 88 89 90 89 90 90 90 89 89 90 91 90 90 87 86 85 85 84 84 84 84 85 84 84 85 84 85 86 87 87 87 86 86 87 87 87 86 85 85 85 85 84 84 84 83 83 83 83 83 83 82 82
88 88 85 87 86 86 86 85 85 85 86 88 89 89 89 89 90 90 89 90 90 92 91 89 87 86 86 85 84 84 84 84 85 85 85 85 84 84 85 86 86 86 86 86 87 87 88 88 87 85 84 84 84 84 84 84 83 84 83 82 82 83 82
89 89 86 86 86 85 85 86 86 86 86 87 89 89 89 89 89 89 89 90 91 90 91 89 87 86 85 85 84 85 85 84 84 84 84 84 84 84 85 86 86 87 86 86 86 87 87 87 86 86 85 84 84 84 84 84 84 80 74 76 83 83 83
87 86 85 86 84 85 83 84 85 85 85 86 88 89 89 89 89 90 91 90 90 89 90 90 87 87 86 85 85 85 85 84 84 84 83 84 84 84 84 84 85 85 85 85 85 86 85 86 86 87 86 85 85 84 84 84 84 73 69 70 73 81 83
84 84 85 85 85 84 83 84 84 84 85 87 89 89 89 88 89 89 90 90 90 91 92 90 89 87 86 86 85 85 84 84 84 83 83 83 83 83 84 85 84 84 84 85 85 84 86 86 86 86 86 86 86 85 84 84 77 70 68 68 68 73 83
85 85 83 82 83 84 86 86 85 85 87 89 89 89 90 88 89 88 89 89 89 90 91 91 90 87 86 87 85 85 84 84 84 83 83 83 83 84 83 83 84 84 84 85 85 85 84 84 85 85 86 85 84 85 85 85 75 68 67 67 67 67 75
85 85 86 84 84 85 82 82 84 86 87 86 87 90 91 89 88 88 89 90 89 89 89 89 89 87 86 86 85 85 85 84 84 83 83 83 84 84 83 83 83 85 86 86 85 84 84 85 85 85 85 85 84 84 86 85 75 67 66 66 65 66 69
84 82 82 82 81 81 80 81 81 82 82 85 87 86 87 86 87 86 85 87 87 88 88 89 89 86 85 85 85 85 85 84 84 83 83 83 83 83 83 83 83 84 85 86 85 84 84 84 84 85 85 86 85 84 85 87 73 65 64 64 63 65 67
82 83 81 81 80 80 82 84 84 84 83 86 87 88 89 88 87 85 85 85 86 87 88 87 87 85 84 85 86 85 85 85 84 84 84 83 83 83 83 83 83 83 84 85 86 86 86 85 86 85 85 86 86 86 84 87 71 65 64 63 63 64 72
83 82 82 82 82 81 81 83 83 84 83 81 83 85 87 88 88 86 85 85 86 85 86 85 85 86 83 85 85 85 85 85 85 84 84 84 83 83 83 83 83 83 84 84 85 85 85 85 86 86 86 85 85 85 86 86 74 64 62 62 61 64 76
84 83 82 82 81 81 80 80 81 82 82 81 80 81 83 87 86 85 83 83 84 83 84 85 85 86 84 84 85 85 86 85 85 84 84 84 83 83 84 84 85 85 84 84 85 86 86 86 86 86 86 86 86 86 86 87 77 62 61 60 60 66 77
84 83 82 81 81 80 79 78 79 81 80 80 80 80 81 83 85 82 83 84 86 86 85 85 85 85 85 83 84 85 86 86 86 85 85 84 84 85 84 84 84 85 85 85 86 86 86 86 86 85 86 87 87 81 84 87 81 62 59 59 59 65 77
80 81 82 82 81 81 78 79 78 78 79 80 81 81 81 83 83 82 82 84 86 86 85 85 85 85 85 83 84 85 86 86 85 85 85 85 84 85 84 85 85 85 85 85 85 85 86 86 85 85 85 86 86 87 85 86 86 75 56 57 56 59 74
81 81 80 81 81 82 80 80 80 79 80 80 80 82 82 82 81 79 79 80 81 84 87 86 84 83 83 83 84 85 85 86 86 85 86 86 85 85 85 85 85 84 84 84 85 85 84 85 84 85 84 85 86 86 86 86 85 81 55 55 55 57 63
80 80 82 80 81 81 79 80 79 80 82 80 83 83 82 81 79 79 78 78 81 84 86 83 83 83 83 83 84 85 85 86 85 86 86 85 84 83 83 84 85 85 84 84 83 82 82 83 82 82 82 83 85 85 85 84 78 86 59 55 54 55 56
76 77 77 77 78 80 80 77 78 78 78 81 81 80 80 79 78 78 79 79 80 82 83 84 83 83 83 83 83 83 84 84 84 85 86 84 84 83 82 82 83 84 83 82 82 81 81 81 82 81 79 79 81 82 84 84 81 73 72 55 55 53 54
76 76 77 79 79 78 79 77 76 77 77 79 78 78 79 79 78 78 78 79 81 82 83 83 83 83 83 82 83 83 84 84 84 85 85 84 83 83 82 82 82 82 82 81 81 81 80 80 80 80 80 78 78 80 81 82 83 75 70 65 55 55 54
75 75 75 75 77 77 77 77 76 77 77 78 78 78 79 79 78 78 78 80 81 81 82 82 82 82 81 82 82 82 84 84 84 84 84 84 83 82 82 81 82 81 80 81 81 80 80 79 80 79 79 78 77 78 78 81 81 76 63 59 56 55 54
74 74 75 75 75 76 76 76 76 76 76 77 78 79 79 79 78 77 78 81 81 81 81 81 81 81 81 81 82 82 84 83 84 83 84 83 83 83 82 82 82 81 79 81 81 81 80 78 79 79 79 78 79 78 79 79 75 70 69 63 60 57 54
73 74 73 74 75 76 74 75 75 75 75 75 77 78 79 79 79 78 79 80 82 83 83 80 80 80 80 81 81 82 82 83 82 82 83 82 82 83 83 83 82 81 79 81 81 80 79 79 78 78 78 77 77 78 76 70 69 69 67 68 68 66 61
72 73 73 74 74 75 74 74 73 74 73 74 75 76 77 78 79 80 80 81 81 81 80 80 80 80 80 81 81 81 82 81 85 83 82 82 83 84 84 83 81 81 80 80 81 79 78 78 78 78 79 78 79 77 70 67 66 64 65 64 65 66 66
72 72 72 73 73 75 73 73 73 73 73 73 74 75 75 77 78 79 80 80 80 80 79 78 79 80 80 80 80 80 81 80 81 81 78 70 63 58 56 63 77 78 69 66 67 78 81 78 76 74 74 74 74 72 68 67 65 63 57 58 55 62 65
72 72 72 73 74 74 73 74 73 72 72 72 73 75 75 75 76 78 80 80 80 80 78 78 78 79 79 79 79 80 79 80 79 77 75 73 69 67 65 57 47 54 67 66 60 56 61 64 72 73 71 68 66 69 69 67 66 53 47 47 47 46 49
71 71 72 73 72 72 72 72 73 73 72 72 73 73 74 75 76 77 78 78 78 78 78 78 77 77 78 79 80 78 80 79 78 75 73 71 71 69 67 65 62 48 46 53 56 53 50 50 52 56 62 69 66 60 56 56 49 44 45 44 45 47 46
72 72 72 72 73 72 71 72 71 72 72 72 73 74 74 75 76 77 78 77 77 78 77 76 75 74 74 76 76 76 77 77 76 74 72 71 71 71 69 68 66 64 52 46 50 51 49 49 49 50 52 56 58 60 57 49 44 43 42 44 43 44 44
MSLP
1000.72 1001.24 1001.68 1001.84 1002.32 1002.48 1002.88 1003.08 1003.08 1003.48 1003.92 1004.44 1004.68 1005.00 1005.52 1005.84 1006.28 1006.84 1007.60 1008.12 1008.60 1009.08 1009.24 1009.48 1009.76 1010.04 1010.40 1010.56 1010.76 1011.00 1011.20 1011.52 1011.80 1012.16 1012.44 1012.68 1012.80 1013.08 1013.40 1013.56 1013.84 1013.96 1014.04 1014.36 1014.44 1014.52 1014.48 1014.56 1014.80 1014.96 1015.20 1015.40 1015.64 1015.80 1015.96 1016.12 1016.32 1016.44 1016.60 1016.80 1016.96 1017.24 1017.48
1000.76 1000.96 1001.20 1001.36 1001.76 1002.00 1002.28 1002.52 1002.72 1003.08 1003.48 1003.88 1004.36 1004.72 1005.08 1005.44 1005.80 1006.44 1006.92 1007.40 1007.92 1008.36 1008.68 1009.00 1009.40 1009.64 1009.84 1010.12 1010.32 1010.64 1011.04 1011.24 1011.44 1011.68 1011.96 1012.28 1012.44 1012.60 1012.76 1013.08 1013.32 1013.60 1013.64 1013.72 1013.88 1014.00 1014.20 1014.36 1014.44 1014.76 1015.00 1015.16 1015.36 1015.48 1015.72 1015.88 1016.08 1016.28 1016.44 1016.64 1016.96 1017.16 1017.32
1000.24 1000.36 1000.56 1000.76 1001.12 1001.36 1001.80 1002.28 1002.52 1002.52 1002.92 1003.40 1003.88 1004.36 1004.56 1004.72 1004.92 1005.48 1006.24 1007.00 1007.72 1008.16 1008.44 1008.72 1008.88 1009.12 1009.32 1009.68 1010.12 1010.36 1010.60 1010.92 1011.24 1011.48 1011.76 1011.92 1012.12 1012.24 1012.32 1012.52 1012.80 1013.08 1013.20 1013.32 1013.56 1013.84 1013.84 1014.12 1014.16 1014.36 1014.64 1014.96 1015.12 1015.32 1015.44 1015.68 1015.84 1016.00 1016.20 1016.36 1016.72 1017.00 1017.20
999.60 999.76 999.76 999.76 1000.08 1000.40 1000.88 1001.40 1001.92 1002.08 1002.20 1002.52 1002.96 1003.20 1003.68 1004.24 1004.52 1005.12 1005.72 1006.40 1007.24 1007.88 1008.32 1008.36 1008.64 1008.96 1009.20 1009.52 1009.80 1010.04 1010.36 1010.52 1010.68 1010.92 1011.12 1011.32 1011.64 1011.76 1012.12 1012.32 1012.52 1012.68 1013.08 1013.24 1013.20 1013.36 1013.56 1013.76 1014.04 1014.20 1014.36 1014.72 1014.92 1015.04 1015.20 1015.40 1015.56 1015.76 1015.96 1016.16 1016.48 1016.68 1016.84
998.80 998.84 999.28 999.80 1000.20 1000.52 1000.88 1001.16 1001.52 1001.68 1001.84 1001.92 1002.12 1002.48 1003.16 1003.92 1004.48 1005.00 1005.48 1005.96 1006.56 1007.24 1007.40 1007.76 1008.12 1008.48 1008.80 1009.12 1009.44 1009.64 1009.84 1010.04 1010.32 1010.52 1010.76 1010.92 1011.16 1011.44 1011.84 1012.12 1012.24 1012.40 1012.52 1012.72 1012.92 1013.16 1013.40 1013.64 1013.88 1014.04 1014.24 1014.40 1014.68 1014.84 1015.00 1015.08 1015.32 1015.48 1015.76 1015.96 1016.36 1016.48 1016.72
998.76 998.92 999.08 999.36 999.68 1000.00 1000.20 1000.44 1000.72 1001.00 1001.36 1001.80 1002.20 1002.72 1003.08 1003.56 1003.96 1004.56 1005.00 1005.60 1006.12 1006.60 1007.20 1007.80 1008.20 1008.44 1008.88 1008.92 1009.16 1009.32 1009.44 1009.64 1009.80 1010.00 1010.36 1010.60 1010.96 1011.32 1011.48 1011.56 1011.76 1011.96 1012.28 1012.40 1012.48 1012.76 1012.96 1013.32 1013.56 1013.76 1014.04 1014.16 1014.36 1014.56 1014.68 1014.92 1015.04 1015.20 1015.48 1015.76 1016.04 1016.28 1016.56
998.32 998.32 998.72 998.92 999.08 999.40 999.68 999.88 1000.16 1000.40 1000.56 1000.92 1001.44 1002.08 1002.60 1003.16 1003.56 1003.88 1004.48 1005.12 1005.60 1006.32 1006.76 1007.24 1007.48 1007.96 1008.24 1008.40 1008.64 1008.88 1009.28 1009.44 1009.60 1009.84 1010.00 1010.36 1010.56 1010.84 1010.96 1011.08 1011.28 1011.48 1011.60 1011.88 1012.28 1012.40 1012.76 1013.00 1013.16 1013.32 1013.56 1013.80 1014.04 1014.24 1014.44 1014.64 1014.84 1014.88 1015.16 1015.52 1015.84 1015.96 1016.12
997.20 997.80 998.00 998.24 998.56 998.84 999.20 999.48 999.64 999.92 1000.28 1000.72 1001.40 1001.92 1002.28 1002.48 1003.08 1003.72 1004.04 1004.28 1004.80 1005.44 1006.04 1006.48 1007.00 1007.24 1007.44 1007.76 1008.00 1008.40 1008.64 1008.88 1009.04 1009.32 1009.60 1010.00 1010.24 1010.48 1010.60 1010.80 1010.96 1011.04 1011.36 1011.76 1011.76 1011.96 1012.32 1012.56 1012.72 1012.88 1013.12 1013.48 1013.72 1013.84 1014.04 1014.24 1014.40 1014.56 1014.84 1015.24 1015.56 1015.80 1015.80
996.84 996.96 997.52 997.76 998.04 998.40 998.72 999.04 999.36 999.72 1000.08 1000.36 1000.72 1001.12 1001.40 1001.96 1002.44 1002.68 1003.08 1003.60 1004.12 1004.68 1005.08 1005.40 1005.92 1006.40 1007.00 1007.52 1007.84 1008.08 1008.24 1008.56 1008.92 1009.16 1009.48 1009.80 1009.92 1010.12 1010.24 1010.40 1010.56 1010.68 1011.12 1011.32 1011.48 1011.56 1011.76 1012.04 1012.28 1012.52 1012.76 1013.08 1013.32 1013.52 1013.72 1013.88 1014.08 1014.16 1014.44 1014.80 1015.08 1015.40 1015.56
996.88 997.36 997.44 997.32 997.40 997.72 998.24 998.64 999.12 999.68 1000.08 1000.28 1000.60 1001.04 1001.28 1001.32 1001.56 1002.04 1002.60 1003.00 1003.52 1004.16 1004.52 1005.04 1005.48 1006.00 1006.56 1007.04 1007.40 1007.68 1008.08 1008.48 1008.68 1009.08 1009.36 1009.64 1009.60 1009.76 1009.80 1009.96 1010.20 1010.36 1010.68 1010.84 1011.00 1011.36 1011.36 1011.52 1011.84 1012.20 1012.48 1012.76 1013.00 1013.20 1013.36 1013.56 1013.68 1013.84 1014.00 1014.28 1014.56 1014.88 1015.12
996.20 996.72 997.12 997.36 997.60 997.80 998.12 998.60 999.28 999.64 999.68 999.96 1000.24 1000.52 1000.76 1001.04 1001.36 1001.76 1002.12 1002.56 1003.12 1003.52 1003.92 1004.48 1004.84 1005.52 1006.04 1006.52 1007.04 1007.40 1007.80 1008.12 1008.40 1008.80 1009.04 1009.20 1009.20 1009.36 1009.44 1009.60 1009.80 1010.04 1010.28 1010.52 1010.76 1010.88 1011.12 1011.32 1011.40 1011.84 1012.20 1012.44 1012.60 1012.80 1012.96 1013.08 1013.24 1013.52 1013.68 1013.80 1014.00 1014.28 1014.60
995.60 996.28 996.76 997.00 997.36 997.68 998.12 998.36 998.60 999.04 999.40 999.56 999.72 1000.00 1000.36 1000.68 1001.00 1001.40 1001.88 1002.28 1002.60 1003.36 1003.80 1004.16 1004.48 1005.00 1005.60 1006.04 1006.68 1007.04 1007.36 1007.60 1007.88 1008.20 1008.40 1008.60 1008.72 1008.84 1008.96 1009.12 1009.40 1009.64 1009.84 1010.00 1010.36 1010.52 1010.64 1011.00 1011.20 1011.40 1011.72 1011.84 1012.04 1012.20 1012.44 1012.56 1012.76 1012.96 1013.16 1013.40 1013.60 1013.88 1014.12
995.72 996.20 996.52 996.72 997.00 997.20 997.56 998.20 998.52 998.72 998.88 999.16 999.36 999.60 1000.00 1000.36 1000.72 1001.04 1001.52 1002.00 1002.20 1002.52 1003.16 1003.68 1004.20 1004.68 1005.20 1005.60 1006.08 1006.56 1006.80 1007.00 1007.16 1007.32 1007.60 1007.84 1008.04 1008.20 1008.44 1008.68 1008.84 1009.12 1009.44 1009.52 1009.80 1010.12 1010.40 1010.52 1010.80 1010.88 1011.12 1011.32 1011.52 1011.80 1011.96 1012.16 1012.32 1012.56 1012.76 1012.96 1013.20 1013.44 1013.76
995.60 995.96 995.76 995.72 996.44 997.20 997.76 997.92 998.16 998.56 998.80 999.00 999.28 999.36 999.76 999.96 1000.20 1000.64 1001.12 1001.60 1001.76 1002.12 1002.64 1003.08 1003.68 1004.24 1004.68 1005.08 1005.52 1005.84 1006.08 1006.24 1006.36 1006.60 1006.80 1007.04 1007.36 1007.64 1007.84 1008.08 1008.32 1008.56 1008.80 1009.08 1009.48 1009.68 1009.84 1010.12 1010.32 1010.40 1010.56 1010.80 1011.04 1011.20 1011.40 1011.72 1011.92 1012.08 1012.28 1012.48 1012.68 1012.96 1013.24
995.88 996.16 996.44 996.48 996.44 996.76 997.12 997.64 997.92 998.28 998.52 998.68 998.84 999.24 999.48 999.80 1000.08 1000.32 1000.72 1001.00 1001.32 1001.64 1002.00 1002.36 1003.08 1003.68 1004.12 1004.52 1004.96 1005.12 1005.28 1005.56 1005.80 1006.00 1006.32 1006.64 1006.96 1007.24 1007.44 1007.56 1007.76 1008.00 1008.28 1008.56 1008.80 1008.92 1009.12 1009.28 1009.60 1010.04 1010.32 1010.40 1010.60 1010.84 1010.96 1011.24 1011.40 1011.48 1011.72 1012.08 1012.28 1012.36 1012.72
995.76 996.20 996.52 996.60 996.76 996.96 997.04 997.24 997.52 997.80 998.04 998.36 998.68 998.96 999.24 999.56 999.80 1000.00 1000.40 1000.68 1000.88 1001.20 1001.36 1001.80 1002.48 1003.08 1003.60 1004.04 1004.24 1004.48 1004.80 1005.12 1005.40 1005.68 1005.92 1006.28 1006.56 1006.72 1006.92 1007.16 1007.32 1007.52 1007.76 1007.96 1008.08 1008.32 1008.52 1008.84 1009.12 1009.48 1009.80 1010.16 1010.36 1010.52 1010.68 1010.76 1010.72 1010.80 1010.96 1011.16 1011.52 1011.88 1012.08
996.04 996.52 996.44 996.48 996.80 997.08 997.24 997.28 997.44 997.76 998.08 998.28 998.40 998.60 998.80 999.04 999.28 999.52 999.84 1000.16 1000.44 1000.68 1000.76 1001.16 1001.96 1002.44 1002.88 1003.32 1003.48 1003.88 1004.28 1004.80 1005.12 1005.36 1005.72 1005.76 1006.04 1006.28 1006.56 1006.72 1006.84 1007.12 1007.32 1007.48 1007.64 1007.88 1008.12 1008.44 1008.84 1009.00 1009.20 1009.56 1009.88 1010.20 1010.20 1010.20 1010.16 1010.32 1010.56 1010.76 1010.96 1011.24 1011.56
996.24 996.36 996.56 996.68 996.76 996.92 997.24 997.40 997.60 997.84 998.04 998.12 998.04 998.20 998.40 998.80 999.04 999.40 999.68 999.76 1000.00 1000.16 1000.32 1000.84 1001.36 1001.88 1002.28 1002.52 1002.96 1003.40 1003.84 1004.16 1004.56 1004.96 1005.20 1005.44 1005.72 1005.84 1005.96 1006.20 1006.48 1006.76 1006.92 1007.12 1007.40 1007.52 1007.68 1008.12 1008.24 1008.44 1008.68 1009.00 1009.24 1009.52 1009.60 1009.64 1009.52 1009.84 1010.12 1010.40 1010.60 1010.72 1010.92
995.32 995.88 996.40 996.48 996.64 996.72 996.80 997.00 997.20 997.32 997.48 997.68 997.88 998.08 998.04 998.20 998.72 999.16 999.12 999.40 999.48 999.76 1000.20 1000.52 1000.96 1001.44 1001.80 1002.08 1002.48 1002.88 1003.24 1003.64 1004.08 1004.44 1004.76 1004.92 1005.12 1005.36 1005.68 1005.96 1006.16 1006.40 1006.68 1006.88 1006.80 1007.12 1007.56 1007.64 1007.88 1008.16 1008.24 1008.48 1008.80 1008.96 1008.96 1009.00 1008.96 1009.32 1009.60 1009.88 1010.16 1010.40 1010.56
995.92 995.88 995.96 996.36 996.48 996.56 996.72 996.76 996.84 996.88 997.00 997.20 997.32 997.40 997.48 997.72 998.20 998.44 998.48 998.80 999.12 999.60 999.88 1000.28 1000.60 1000.96 1001.40 1001.68 1002.00 1002.32 1002.72 1003.12 1003.56 1003.92 1004.16 1004.40 1004.72 1005.04 1005.40 1005.72 1005.92 1005.88 1005.96 1006.24 1006.60 1006.96 1007.16 1007.28 1007.56 1007.64 1007.88 1007.92 1008.16 1008.32 1008.32 1008.36 1008.36 1008.76 1009.08 1009.36 1009.68 1009.92 1010.28
995.80 996.24 996.24 996.24 996.48 996.52 996.56 996.64 996.88 997.00 997.12 997.12 997.16 997.24 997.48 997.84 997.92 998.24 998.56 998.68 999.08 999.20 999.60 999.88 1000.20 1000.64 1001.00 1001.36 1001.60 1001.88 1002.24 1002.64 1003.00 1003.44 1003.72 1004.00 1004.32 1004.68 1005.00 1005.24 1005.44 1005.64 1005.72 1005.92 1006.16 1006.48 1006.76 1006.92 1007.16 1007.20 1007.24 1007.36 1007.44 1007.72 1007.88 1007.68 1007.72 1008.20 1008.52 1008.80 1009.12 1009.44 1009.88
996.40 996.00 996.44 996.72 996.96 996.88 996.72 997.00 997.20 997.28 997.36 996.96 997.00 997.20 997.32 997.68 997.72 998.20 998.52 998.44 998.80 999.12 999.28 999.60 999.96 1000.32 1000.60 1000.96 1001.20 1001.48 1001.72 1002.12 1002.56 1002.96 1003.28 1003.64 1003.96 1004.32 1004.64 1004.84 1005.08 1005.32 1005.32 1005.52 1005.64 1005.76 1006.00 1006.28 1006.40 1006.68 1006.80 1006.72 1006.88 1007.24 1007.48 1007.12 1007.20 1007.56 1007.88 1008.20 1008.64 1009.04 1009.68
997.20 997.48 997.68 997.76 997.56 997.64 997.20 996.84 996.96 997.00 996.96 997.20 997.28 997.36 997.48 997.36 997.52 997.88 998.28 998.64 998.76 998.92 999.24 999.48 999.84 1000.00 1000.24 1000.52 1000.64 1000.92 1001.20 1001.56 1002.04 1002.52 1002.88 1003.20 1003.64 1003.92 1004.16 1004.44 1004.68 1004.84 1004.92 1005.40 1005.40 1005.60 1005.76 1005.80 1005.84 1005.80 1006.12 1006.40 1006.56 1006.76 1006.80 1006.76 1006.68 1007.00 1007.36 1007.76 1008.16 1009.00 1009.32
997.44 997.68 997.88 997.92 997.76 997.72 997.68 997.48 997.24 997.12 997.24 997.40 997.28 997.36 997.48 997.40 997.56 997.84 998.28 998.56 998.60 998.92 999.20 999.40 999.60 999.52 999.80 1000.04 1000.12 1000.36 1000.68 1001.04 1001.48 1002.04 1002.44 1002.76 1003.12 1003.40 1003.64 1003.80 1004.00 1004.28 1004.36 1004.84 1005.08 1005.24 1005.12 1005.16 1005.40 1005.48 1005.60 1005.88 1006.08 1005.96 1006.28 1006.20 1006.08 1006.44 1006.88 1007.36 1007.92 1008.36 1008.80
997.92 998.00 998.08 998.16 998.32 998.44 998.16 998.08 997.88 997.64 997.56 997.60 997.92 997.52 997.32 997.60 997.68 998.08 998.40 998.32 998.52 998.68 999.08 999.20 999.12 999.20 999.40 999.60 999.64 999.88 1000.16 1000.52 1000.96 1001.40 1001.84 1002.24 1002.56 1002.80 1003.20 1003.44 1003.64 1003.80 1004.00 1004.24 1004.48 1004.64 1004.64 1004.84 1005.12 1005.24 1005.24 1005.24 1005.36 1005.44 1005.80 1005.84 1005.76 1006.08 1006.68 1007.24 1007.72 1008.24 1008.36
998.60 998.44 998.24 998.04 998.04 998.04 998.12 998.08 998.16 998.24 998.20 998.28 998.20 997.60 997.44 997.44 997.84 998.16 998.36 998.44 998.24 998.60 998.76 998.60 998.44 998.52 998.72 999.08 999.28 999.48 999.80 1000.08 1000.56 1000.88 1001.28 1001.76 1002.08 1002.28 1002.60 1002.84 1003.20 1003.44 1003.72 1003.96 1004.12 1004.40 1004.52 1004.60 1004.76 1005.04 1005.04 1004.88 1005.04 1005.20 1005.28 1005.52 1005.56 1005.84 1006.52 1007.12 1007.72 1008.12 1008.12
998.64 998.52 998.64 998.52 998.40 998.00 998.16 998.12 998.24 998.44 998.36 998.16 997.76 997.60 997.48 997.48 997.88 998.28 998.32 998.28 998.56 998.52 997.92 997.68 997.96 998.24 998.48 998.76 999.04 999.28 999.52 999.72 1000.08 1000.56 1000.80 1001.08 1001.52 1001.84 1002.16 1002.40 1002.80 1003.12 1003.44 1003.80 1003.92 1004.20 1004.44 1004.56 1004.64 1004.76 1004.80 1004.76 1004.72 1004.84 1004.96 1005.04 1005.44 1005.64 1006.24 1006.80 1007.28 1007.64 1007.96
999.04 998.92 998.68 998.52 998.40 998.52 998.72 998.64 998.60 998.44 998.36 998.12 998.00 997.88 997.88 997.92 998.12 998.12 998.28 998.40 998.40 997.88 997.36 997.52 997.64 997.88 998.28 998.60 998.88 999.08 999.28 999.52 999.76 1000.04 1000.44 1000.76 1001.16 1001.72 1002.08 1002.12 1002.32 1002.72 1003.08 1003.40 1003.76 1004.16 1004.36 1004.44 1004.60 1004.72 1004.80 1004.68 1004.60 1004.64 1004.72 1004.68 1004.96 1005.36 1005.96 1006.36 1006.76 1007.00 1007.24
999.80 999.84 999.76 999.48 999.36 999.04 999.04 999.24 999.12 999.00 998.80 998.40 998.20 998.08 998.04 998.20 998.52 998.36 998.16 998.32 997.88 997.32 997.24 997.20 997.36 997.68 998.04 998.40 998.72 998.92 999.12 999.28 999.60 999.96 1000.16 1000.60 1000.88 1001.40 1001.88 1002.00 1002.28 1002.56 1002.84 1003.28 1003.64 1004.00 1004.32 1004.44 1004.56 1004.76 1004.92 1004.88 1004.64 1004.52 1004.52 1004.56 1004.72 1004.92 1005.48 1005.88 1006.04 1006.28 1006.56
1000.00 999.92 999.84 999.52 999.36 999.32 999.20 999.48 999.36 999.28 998.92 998.60 998.36 998.20 998.12 998.28 998.60 998.44 998.40 998.12 997.08 996.84 996.80 996.92 997.16 997.48 997.92 998.24 998.44 998.72 998.92 999.12 999.36 999.60 999.84 1000.28 1000.68 1001.12 1001.64 1001.96 1002.12 1002.36 1002.68 1003.00 1003.40 1003.88 1004.20 1004.36 1004.48 1004.72 1005.00 1005.12 1005.00 1004.72 1004.56 1004.44 1004.56 1004.68 1004.80 1005.12 1005.32 1005.48 1005.84
1000.20 1000.20 1000.16 1000.12 999.96 999.60 999.60 999.84 999.92 999.52 999.20 998.68 998.48 998.20 998.20 998.12 998.32 998.32 998.28 997.48 996.72 996.76 996.84 996.96 997.20 997.56 997.96 998.20 998.36 998.56 998.72 998.96 999.24 999.48 999.72 1000.04 1000.40 1001.08 1001.44 1001.80 1001.96 1002.52 1002.56 1002.84 1003.24 1003.56 1003.96 1004.16 1004.32 1004.64 1004.84 1005.00 1005.12 1004.96 1004.76 1004.56 1004.60 1005.08 1005.40 1005.60 1006.08 1006.56 1006.84
1000.04 1000.08 1000.16 1000.12 1000.08 999.92 999.96 999.84 999.72 999.60 999.52 999.20 998.80 998.56 998.28 998.12 998.08 998.40 997.96 996.96 996.72 996.60 996.68 996.92 997.32 997.72 997.96 998.12 998.32 998.48 998.56 999.04 999.28 999.36 999.56 999.88 1000.16 1000.60 1000.92 1001.44 1001.80 1002.20 1002.48 1002.68 1002.96 1003.24 1003.64 1004.00 1004.16 1004.44 1004.60 1004.88 1004.88 1004.96 1004.76 1004.76 1005.28 1005.60 1005.76 1005.88 1006.00 1006.20 1006.40
1000.36 1000.24 1000.28 1000.44 1000.32 1000.12 1000.16 1000.08 1000.12 999.96 999.76 999.72 999.08 998.80 998.56 998.28 997.96 997.76 997.44 997.12 996.80 996.60 996.68 996.96 997.32 997.72 997.92 998.20 998.32 998.36 998.52 998.96 999.32 999.60 999.68 999.88 1000.12 1000.40 1000.68 1000.96 1001.40 1001.84 1002.24 1002.44 1002.76 1003.12 1003.40 1003.68 1004.00 1004.28 1004.52 1004.76 1004.84 1004.72 1004.96 1005.68 1005.88 1006.00 1006.00 1005.92 1005.92 1006.12 1006.36
1000.64 1000.60 1000.52 1000.48 1000.44 1000.36 1000.28 1000.28 1000.40 1000.20 1000.08 1000.00 999.60 999.16 998.92 998.56 998.28 997.80 997.52 997.16 997.04 996.96 996.88 997.20 997.44 997.76 998.00 998.12 998.20 998.40 998.56 998.92 999.04 999.44 999.80 999.96 1000.16 1000.52 1000.68 1000.84 1001.08 1001.60 1001.96 1002.20 1002.44 1003.00 1003.36 1003.52 1003.80 1004.04 1004.20 1004.44 1004.44 1004.84 1005.72 1006.12 1006.28 1006.32 1006.20 1006.20 1006.16 1006.24 1006.32
1001.24 1001.16 1001.00 1001.00 1000.84 1000.64 1000.72 1000.56 1000.48 1000.36 1000.32 1000.16 999.64 999.40 999.28 998.96 998.52 998.00 997.76 997.48 997.20 997.16 997.32 997.56 997.56 997.68 997.88 997.96 998.16 998.48 998.48 998.76 999.04 999.36 999.96 1000.76 1001.28 1001.96 1002.36 1002.08 1001.40 1001.40 1001.92 1002.12 1002.04 1001.96 1002.56 1003.12 1003.44 1003.64 1003.84 1004.04 1004.48 1005.16 1006.04 1006.28 1006.32 1006.48 1006.52 1006.48 1006.40 1006.28 1006.40
1001.52 1001.44 1001.28 1001.00 1000.88 1000.76 1000.68 1000.52 1000.52 1000.48 1000.32 1000.12 999.68 999.60 999.52 999.20 998.80 998.32 997.96 997.68 997.44 997.32 997.56 997.72 997.80 997.92 998.08 998.08 998.28 998.48 998.64 998.84 999.20 999.68 1000.20 1000.72 1001.48 1002.00 1002.72 1003.12 1003.00 1002.64 1002.36 1002.52 1002.44 1001.96 1001.80 1002.04 1003.12 1003.52 1003.80 1004.48 1005.00 1004.88 1005.16 1005.76 1006.20 1006.48 1006.60 1006.60 1006.56 1006.60 1006.68
1001.92 1001.80 1001.60 1001.24 1001.20 1001.08 1000.84 1000.64 1000.44 1000.36 1000.32 1000.12 999.80 999.76 999.60 999.40 998.96 998.56 998.20 997.92 997.68 997.60 997.56 997.64 998.04 998.28 998.36 998.32 998.44 998.52 998.64 998.92 999.52 1000.00 1000.40 1000.84 1001.24 1001.76 1002.36 1002.96 1003.28 1003.56 1003.72 1003.48 1003.16 1002.48 1002.68 1002.96 1003.44 1003.76 1003.76 1003.96 1005.24 1005.72 1005.56 1005.80 1006.24 1006.48 1006.56 1006.60 1006.60 1006.64 1006.80
1001.76 1001.64 1001.52 1001.28 1001.24 1001.04 1000.92 1000.72 1000.60 1000.48 1000.36 1000.04 999.84 999.80 999.64 999.48 999.04 998.68 998.40 998.12 997.92 997.76 997.84 998.08 998.48 998.92 998.96 998.84 998.84 998.80 998.92 999.20 999.72 1000.20 1000.68 1001.12 1001.24 1001.56 1002.08 1002.64 1003.44 1004.04 1004.24 1004.32 1003.92 1003.52 1003.60 1003.92 1004.16 1004.40 1004.64 1004.84 1005.04 1005.56 1006.40 1006.56 1006.52 1006.52 1006.60 1006.64 1006.72 1006.76 1007.04
Wind_Speed
23 20 18 18 17 18 19 19 20 19 18 17 18 18 18 17 17 17 16 18 20 19 18 17 16 16 18 16 15 14 13 13 12 12 11 11 10 10 11 10 9 9 8 10 10 11 10 9 9 9 9 9 9 8 8 8 7 7 6 6 7 7 8
20 19 19 18 18 19 19 19 19 17 17 16 16 18 16 18 17 17 18 19 21 21 20 19 17 17 18 17 15 15 15 15 14 11 11 10 9 9 10 10 10 9 9 8 9 9 9 9 10 9 10 9 10 9 8 8 8 8 8 6 8 7 7
21 20 19 18 19 17 19 17 17 18 19 16 17 17 18 19 20 20 19 19 20 19 18 19 19 18 18 17 16 16 16 14 14 14 14 13 13 12 11 11 11 10 9 8 7 7 9 10 10 9 9 10 10 9 8 8 8 8 8 8 7 8 8
21 20 19 20 19 18 20 20 20 19 19 20 20 22 20 20 17 16 17 18 19 19 20 19 19 17 16 17 17 16 16 16 16 15 15 13 13 12 10 10 10 10 9 9 9 9 8 9 10 10 10 9 10 10 9 9 8 8 8 8 7 8 9
22 21 18 17 17 16 17 18 19 19 20 21 22 21 19 16 16 15 15 17 18 20 20 20 17 16 14 15 13 13 16 17 16 15 14 12 12 11 11 11 11 12 12 10 9 9 9 9 9 10 10 9 10 10 11 9 9 9 8 8 7 7 7
19 19 18 17 18 17 18 19 21 21 21 21 20 19 17 18 17 19 18 18 18 17 16 16 16 15 15 15 14 14 14 15 15 15 14 14 13 12 13 12 12 12 12 13 10 10 11 10 10 10 11 10 11 11 10 10 9 9 9 8 8 8 8
18 19 17 17 18 18 18 19 19 20 20 20 18 17 17 17 20 19 17 18 18 20 20 20 19 17 16 15 17 17 17 16 16 16 14 14 14 14 14 13 12 12 12 10 11 10 10 11 12 12 11 11 11 11 11 11 11 9 9 9 9 8 9
23 20 18 18 17 16 17 16 18 18 16 15 17 19 20 19 17 18 19 19 20 19 19 20 19 19 18 16 16 18 18 18 16 16 14 15 15 15 14 13 12 12 10 11 12 12 11 11 11 11 12 11 11 11 11 11 11 10 10 10 10 10 8
19 19 17 18 17 16 15 16 15 16 18 18 20 21 22 19 19 20 21 20 19 20 21 21 20 18 16 15 15 17 16 16 15 15 15 16 15 16 15 14 13 12 12 12 11 11 12 12 10 11 12 12 11 11 11 12 11 11 11 11 12 11 10
18 18 16 17 17 15 15 15 14 14 15 17 16 18 19 19 19 18 18 19 18 21 21 20 18 18 17 16 17 17 15 15 14 15 15 16 14 16 15 14 13 12 13 13 11 11 11 12 12 10 11 12 12 12 11 11 12 12 12 12 13 12 12
18 22 17 17 15 15 14 14 15 16 17 16 15 17 18 18 17 18 18 17 18 18 19 18 17 18 18 18 18 17 16 16 15 16 17 16 15 16 15 14 13 12 13 13 12 12 11 11 12 11 11 12 13 13 12 12 12 12 12 12 11 13 12
21 21 20 19 17 15 16 16 16 16 16 16 16 17 17 17 17 16 16 17 15 15 16 17 16 17 17 17 18 17 18 17 17 17 18 18 17 17 16 14 14 13 13 13 14 13 12 12 11 12 13 12 12 13 13 12 12 13 13 13 12 12 12
16 14 17 20 18 18 16 14 17 17 17 17 16 15 15 16 17 16 15 16 17 16 16 16 16 16 17 17 18 17 18 18 18 18 18 18 17 15 14 15 14 14 14 14 14 14 13 13 13 12 13 14 12 12 13 13 13 12 12 12 12 12 12
17 15 18 21 18 18 18 18 16 15 15 16 16 14 14 15 16 16 16 17 17 16 15 14 16 16 17 17 18 18 18 18 18 17 17 17 16 16 15 15 15 14 13 13 15 14 14 14 14 13 13 13 13 13 12 12 12 12 12 12 12 12 12
17 16 8 15 18 19 19 18 16 16 16 17 17 17 16 16 16 15 14 15 16 16 16 16 16 17 17 17 18 18 17 16 16 15 15 16 16 16 16 15 15 14 13 14 15 13 14 14 14 14 13 13 13 13 12 12 13 11 12 13 13 12 13
16 12 10 14 13 14 15 17 17 17 17 17 18 18 16 15 16 16 16 16 16 16 15 15 16 17 16 17 17 16 16 16 14 15 15 15 16 16 16 15 15 15 15 15 16 15 14 14 13 14 14 14 13 13 12 12 11 14 19 17 13 13 12
12 9 10 11 11 11 10 12 13 12 14 16 18 18 16 15 15 16 16 15 16 17 15 15 15 16 17 17 16 16 15 14 15 14 15 15 15 15 15 16 14 14 15 14 15 15 15 14 15 14 14 15 14 14 13 12 11 18 18 19 20 15 13
10 11 11 10 10 10 10 10 10 12 13 15 16 16 14 13 13 14 15 14 15 15 14 14 15 17 17 16 15 15 16 15 15 15 15 15 15 15 16 15 14 14 14 14 14 14 13 14 15 14 13 13 14 15 14 13 16 19 19 20 20 19 14
11 11 12 12 11 11 11 11 10 11 13 12 12 12 12 11 12 14 14 14 13 12 14 15 14 15 16 15 15 16 15 15 16 16 15 16 15 14 14 15 15 14 13 15 14 12 13 15 14 14 13 13 15 15 15 14 18 19 21 21 21 21 19
8 9 11 8 9 9 7 7 8 8 9 8 8 10 9 9 10 11 12 12 11 13 14 14 13 13 14 14 15 15 15 15 15 16 15 14 14 14 14 14 15 15 13 12 11 12 13 13 15 14 14 13 14 14 14 15 17 21 21 21 22 22 19
11 7 6 6 6 4 5 7 6 6 5 6 6 5 5 5 6 6 7 9 12 12 13 14 14 11 12 14 14 15 15 15 15 15 14 14 14 14 14 15 14 14 13 12 13 14 13 14 14 14 14 14 13 13 14 14 19 21 23 22 23 23 20
7 4 4 7 8 7 7 8 8 6 4 1 5 6 6 7 6 7 7 7 10 11 12 12 13 11 11 13 14 14 15 15 15 15 14 14 14 14 15 14 14 14 13 12 11 11 11 11 12 13 14 15 15 13 13 14 19 21 23 24 22 23 15
16 18 15 12 11 9 7 8 8 5 4 3 4 3 3 5 7 8 7 7 7 9 10 10 12 12 10 12 13 14 14 14 15 14 14 14 14 15 14 14 13 12 11 12 12 12 12 13 14 13 14 14 14 15 14 13 16 21 22 23 23 17 13
15 14 13 11 9 9 9 7 6 6 6 5 5 3 2 1 4 7 8 8 7 7 9 10 12 12 10 11 13 13 13 14 14 14 14 14 15 14 13 13 11 12 11 13 13 13 13 13 12 11 12 13 15 16 15 14 14 20 22 22 22 19 14
12 11 10 10 8 8 6 5 4 3 4 3 3 5 4 1 1 3 7 9 9 9 9 11 11 11 11 9 10 11 12 13 14 14 14 14 13 13 13 13 12 10 10 11 11 12 10 10 11 11 11 12 14 16 16 13 13 16 18 20 20 18 12
12 11 9 7 6 6 5 3 3 4 4 2 0 3 4 3 0 2 4 7 8 10 11 12 11 9 7 7 9 10 11 11 13 13 14 13 12 11 11 10 10 11 11 10 10 10 10 9 10 12 11 11 12 11 13 13 11 9 15 16 17 19 13
12 11 11 12 10 9 8 7 6 5 4 4 4 3 4 5 3 2 3 4 5 10 13 10 6 7 8 8 8 10 11 11 12 13 12 11 11 11 10 10 10 9 10 10 9 9 9 10 9 9 10 10 10 11 10 10 9 8 15 15 18 20 18
9 9 10 9 10 7 6 6 5 6 7 5 6 6 6 5 5 4 3 4 7 11 6 5 7 8 8 9 9 9 10 11 10 11 10 10 10 10 9 8 9 9 9 8 9 10 10 9 8 7 7 7 8 9 9 9 11 7 12 17 18 20 24
9 9 8 7 8 8 7 6 6 4 4 5 4 5 5 4 4 4 5 5 7 6 6 7 7 8 9 9 9 9 10 9 11 10 8 9 10 10 9 8 9 9 8 9 9 9 10 10 9 7 6 6 7 7 8 7 8 12 10 16 20 22 23
7 6 6 7 5 4 5 6 4 5 5 3 4 4 4 5 4 4 5 7 6 5 6 7 8 8 9 9 9 9 9 9 10 10 9 10 9 9 9 9 8 9 9 9 9 8 9 8 8 8 7 6 6 5 6 6 7 10 15 16 22 22 23
8 8 8 7 8 6 6 6 7 7 4 1 3 4 4 4 4 5 6 5 4 4 5 5 7 7 8 8 8 9 8 8 9 9 9 9 9 9 8 8 8 9 7 8 8 8 9 8 8 9 8 7 6 5 3 5 4 6 6 8 4 3 4
8 7 6 7 5 5 5 6 7 4 4 5 7 8 4 4 4 5 5 1 2 3 4 5 6 6 7 7 7 8 8 9 8 9 9 8 7 8 8 9 9 9 7 8 9 8 8 7 8 8 8 7 6 5 5 4 7 5 5 4 5 5 8
7 8 8 9 8 6 6 6 6 4 5 6 6 6 6 5 6 4 5 4 2 1 1 2 6 6 6 7 7 7 8 9 7 7 7 7 6 6 7 8 8 8 7 8 8 8 7 7 8 7 7 7 6 6 5 6 5 5 4 4 4 4 4
11 10 8 6 6 6 5 5 4 4 4 5 7 7 8 7 6 7 7 6 6 4 2 3 5 6 6 7 7 7 7 7 9 9 7 6 6 7 8 8 8 7 8 8 8 8 6 6 7 7 7 7 7 5 7 5 4 3 4 3 4 4 4
8 7 7 5 5 4 5 4 4 4 4 5 5 6 6 7 7 7 6 5 5 4 3 3 5 6 6 6 6 6 6 7 7 7 7 9 10 11 9 5 1 4 5 5 1 5 7 6 5 5 4 5 5 9 6 5 5 2 1 5 4 6 5
8 7 6 5 5 5 4 3 2 2 3 4 4 5 6 6 6 7 6 6 5 3 4 3 3 4 4 5 5 6 6 6 6 8 9 9 9 10 10 14 16 11 6 3 6 10 10 10 5 7 8 9 5 2 7 8 6 6 6 5 6 7 7
7 7 6 6 5 5 2 2 3 2 3 3 3 4 5 5 5 5 6 5 5 4 2 4 4 4 2 4 6 6 6 6 7 8 8 8 9 9 10 9 13 18 18 13 10 16 19 19 17 14 12 14 11 10 14 13 12 10 8 6 4 3 5
6 6 5 4 5 3 3 2 2 2 1 1 1 1 3 5 4 5 5 5 5 5 6 7 7 6 5 6 6 6 6 8 9 9 9 7 8 10 10 11 11 11 15 17 16 19 20 19 18 17 16 16 15 10 5 6 8 10 8 6 6 5 4
Wind_Direction
176 175 179 180 178 178 180 181 179 176 176 178 182 178 176 176 176 175 179 182 185 186 188 188 186 185 189 190 190 189 188 187 187 188 188 193 193 187 187 190 187 188 182 183 188 190 190 185 183 185 184 185 188 186 188 185 183 189 188 178 181 178 181
172 178 181 180 178 179 180 182 178 177 179 179 179 179 178 180 177 177 180 183 186 187 187 188 189 190 190 190 189 188 189 190 190 190 189 191 193 190 187 187 190 188 187 185 182 186 179 187 185 182 185 186 190 188 184 188 185 185 192 181 178 181 179
177 180 179 179 178 177 179 181 182 181 180 179 178 181 184 183 181 180 178 181 185 189 188 191 193 191 191 189 188 190 191 190 191 193 192 191 192 190 187 187 191 191 190 184 175 176 184 184 188 188 184 188 190 190 187 186 188 186 187 188 173 180 182
177 178 179 178 178 177 176 178 184 185 184 182 182 186 186 184 180 177 178 180 184 185 189 193 194 195 193 191 191 190 192 193 194 195 196 194 192 190 183 186 188 189 189 190 187 184 182 183 188 191 188 187 189 192 190 189 189 188 187 184 185 179 185
174 176 176 174 174 175 175 178 183 184 185 186 188 187 184 177 175 176 177 180 184 189 193 192 194 195 195 193 193 194 194 194 195 197 198 196 193 190 190 187 186 189 192 188 186 187 187 186 188 190 192 188 190 189 193 192 189 189 187 184 188 187 185
169 172 174 170 173 175 176 178 181 183 184 185 184 183 180 177 178 180 180 179 186 189 190 192 196 195 196 195 195 199 198 198 197 196 195 194 190 192 196 193 187 188 185 191 186 188 188 190 192 191 191 191 190 191 192 193 194 189 190 187 192 191 193
174 175 171 172 174 176 179 179 180 183 184 184 180 178 178 179 183 182 178 183 183 186 189 193 195 194 198 195 198 197 197 197 197 197 196 195 195 197 198 197 192 189 189 183 190 185 186 191 193 194 193 190 192 192 192 192 193 191 190 192 194 195 195
177 176 174 175 176 176 179 180 181 183 180 173 173 177 182 183 181 180 185 186 185 187 191 193 194 197 197 197 198 197 198 199 197 197 194 194 195 198 198 197 196 193 185 186 192 189 190 189 192 193 193 192 192 193 193 193 194 191 188 193 196 198 196
170 174 175 177 176 175 178 179 177 178 181 181 177 179 181 180 182 187 188 185 187 188 193 193 195 196 195 198 199 201 200 198 199 197 197 196 197 200 198 197 197 192 192 192 190 191 194 194 190 191 192 195 194 193 193 193 195 194 192 195 196 198 200
159 174 177 180 180 175 176 178 177 178 182 184 180 178 181 184 186 187 186 188 188 192 192 191 193 193 195 198 201 201 199 199 199 198 199 201 201 201 199 196 196 193 195 196 192 191 194 194 194 187 191 195 196 196 195 194 196 197 197 197 197 199 201
162 172 175 180 178 177 174 172 176 184 188 186 180 180 184 186 186 187 190 189 191 193 191 191 191 193 195 197 199 198 198 199 197 198 200 203 203 203 201 197 195 194 196 194 196 195 193 194 193 193 190 195 197 198 199 198 197 198 200 200 200 201 201
167 167 175 173 176 176 177 177 180 180 184 186 185 183 183 185 187 187 188 191 190 189 191 193 192 194 195 197 198 198 198 198 197 199 200 202 204 204 201 199 196 194 197 195 196 195 195 193 193 195 198 198 198 198 199 200 200 201 202 200 199 200 203
172 162 167 173 173 176 175 174 176 177 179 184 187 184 182 184 185 185 185 187 189 189 189 190 191 193 196 196 199 199 200 199 199 198 199 200 202 202 200 200 198 195 195 195 197 196 196 195 195 197 198 201 199 198 199 201 202 203 203 202 200 200 202
179 174 173 173 170 167 170 172 174 173 178 181 185 184 181 184 184 185 184 187 189 187 186 188 190 192 194 196 199 200 201 201 200 200 200 199 198 199 199 198 199 198 194 193 198 200 198 196 197 197 198 200 201 201 198 200 203 204 204 203 202 200 203
176 180 160 170 166 170 170 172 173 173 176 182 184 184 181 181 184 184 185 187 188 190 190 186 188 192 194 195 199 201 200 200 200 201 199 198 197 199 199 199 197 195 193 193 198 200 201 199 196 197 199 200 201 202 202 202 205 204 202 203 205 204 204
164 158 150 167 167 165 169 172 177 179 178 180 183 184 181 181 183 185 185 186 188 192 189 183 188 189 192 196 199 199 198 199 200 200 198 197 197 198 199 198 197 196 196 196 197 198 200 200 197 198 199 199 200 202 204 208 207 206 202 201 202 205 207
117 115 119 143 155 156 162 170 172 175 176 179 183 183 182 182 183 184 187 186 188 191 190 186 186 189 192 196 195 194 193 195 199 198 200 200 198 197 197 198 197 197 199 198 196 197 196 197 200 201 199 199 199 201 206 209 210 204 202 202 202 203 209
114 120 113 114 123 125 137 150 161 167 176 182 183 182 181 178 178 181 189 188 190 190 189 189 188 190 194 194 190 190 191 194 195 198 200 198 200 198 198 198 197 199 199 198 197 196 193 197 201 202 198 199 200 203 206 210 209 201 201 202 203 204 208
142 137 132 135 137 139 142 146 153 162 169 174 178 181 181 170 172 183 189 188 188 183 190 194 191 192 193 192 188 189 190 190 194 197 198 200 199 199 198 199 201 200 198 200 198 191 194 199 198 200 199 197 200 204 206 211 206 200 200 202 204 206 209
75 111 114 116 132 137 139 138 148 149 153 158 167 175 178 174 172 183 185 185 179 183 191 195 195 191 193 191 190 188 188 189 192 195 197 197 198 198 198 200 203 203 200 198 194 195 198 197 198 199 200 201 200 203 206 212 205 198 200 202 204 206 206
89 71 97 114 99 91 137 145 137 134 132 151 156 157 144 164 173 169 174 177 183 186 188 194 198 190 188 191 191 188 188 189 191 194 194 193 194 197 199 200 203 203 202 198 198 198 198 196 198 201 202 204 202 201 206 213 203 196 200 202 203 206 204
49 72 96 99 93 81 94 97 85 78 83 88 161 170 169 180 167 160 183 176 177 187 190 191 196 193 183 189 190 190 189 188 190 192 191 191 193 196 199 199 200 202 201 202 203 203 201 203 201 202 204 205 206 206 209 212 201 197 199 201 202 202 204
62 67 59 40 48 55 59 77 78 71 78 74 86 119 181 190 172 173 176 180 182 179 189 190 197 197 185 188 189 189 189 189 189 189 189 190 192 197 198 198 199 201 197 204 206 201 201 203 204 204 203 204 207 212 215 214 204 198 199 200 200 195 208
62 60 59 55 44 40 34 35 47 45 55 26 5 21 86 61 200 182 176 189 187 177 188 194 203 200 188 188 188 187 186 188 187 188 188 190 195 195 196 197 199 200 195 202 204 206 206 205 207 207 206 205 209 211 216 220 207 197 200 198 196 193 203
62 58 59 66 60 50 40 20 33 47 62 51 351 310 331 33 102 184 201 190 192 191 192 203 206 200 196 187 181 183 184 186 187 187 188 192 194 192 193 195 197 196 194 204 207 212 210 206 207 209 210 211 214 213 216 223 219 195 197 198 195 195 207
46 40 38 49 64 60 48 39 48 37 45 75 205 312 305 298 245 187 211 222 198 195 206 209 207 198 190 174 177 179 182 184 186 188 188 190 188 190 192 189 191 194 195 200 204 209 212 209 209 209 212 212 214 217 216 222 224 192 183 186 193 196 204
43 34 30 27 28 30 24 21 22 11 22 358 331 317 319 334 329 242 211 208 215 215 212 206 180 176 180 175 174 179 182 182 184 186 187 185 185 186 187 188 191 189 193 198 200 207 211 215 212 213 215 211 214 219 218 219 223 193 167 180 184 193 199
47 39 30 18 13 25 20 0 357 9 0 353 15 9 347 325 302 303 267 212 220 228 221 166 176 175 171 174 176 178 181 182 181 181 181 178 175 182 188 186 186 189 192 193 198 204 210 214 217 216 215 212 211 216 218 217 207 204 168 176 185 190 197
51 40 26 18 12 11 12 355 353 355 336 342 356 347 329 333 324 303 294 261 243 227 196 187 173 171 173 173 174 179 179 178 173 175 177 176 176 179 183 179 184 190 188 192 197 201 206 210 213 216 215 211 211 206 210 210 204 202 180 185 188 195 198
53 42 35 15 5 354 353 348 344 346 322 351 337 316 305 295 290 290 283 268 248 201 183 172 169 167 171 175 177 173 175 174 172 173 173 173 175 177 177 179 183 186 189 189 193 195 203 207 208 215 217 213 212 204 204 197 202 205 199 192 196 197 197
37 36 29 14 8 13 6 347 325 296 269 264 303 316 326 311 275 272 276 260 198 167 157 152 157 162 170 175 173 169 169 168 167 172 171 174 172 175 177 181 179 187 186 186 189 191 198 199 197 207 212 211 208 199 177 171 140 67 47 77 127 200 243
31 26 20 15 6 6 350 337 328 356 17 7 10 358 337 352 17 357 290 222 131 121 136 130 148 161 170 170 168 166 160 163 168 170 172 167 168 171 176 179 182 185 181 184 190 192 192 190 192 199 203 203 196 173 165 105 78 76 75 79 105 143 180
20 22 19 16 358 356 347 346 344 13 15 11 358 356 343 347 340 336 335 360 19 127 147 110 148 160 161 164 162 161 158 162 165 165 165 162 156 163 173 176 182 181 180 184 190 190 185 185 187 189 182 186 166 170 105 76 70 71 65 52 87 109 135
3 2 7 6 349 342 342 347 348 8 7 15 355 0 349 342 346 341 349 352 9 3 85 124 144 149 154 153 154 159 158 159 157 153 159 156 152 167 178 180 173 180 180 184 183 181 182 167 169 173 177 176 177 128 94 84 72 57 77 80 77 74 72
349 343 339 345 331 337 335 345 359 14 34 25 6 7 349 346 343 342 354 353 355 357 61 88 123 129 134 142 140 152 152 152 150 143 116 87 71 58 35 358 320 120 84 26 330 189 160 143 108 100 87 90 111 123 113 101 98 126 127 96 93 94 96
337 333 334 334 326 309 304 2 4 32 38 10 10 7 347 345 341 350 351 350 346 355 104 83 89 112 129 138 143 150 147 144 130 115 115 113 105 95 68 55 52 36 60 45 20 67 93 118 127 137 120 96 44 58 136 141 151 145 127 126 93 89 93
329 328 327 320 313 314 339 350 330 345 40 358 10 9 344 342 348 360 355 356 355 351 97 110 83 67 70 123 149 151 144 133 117 115 110 117 112 103 104 88 48 42 40 45 56 83 79 79 85 85 95 109 104 68 83 112 129 147 158 142 138 112 105
313 311 313 314 310 304 316 323 5 38 69 327 343 28 357 339 339 352 5 10 21 33 73 79 85 77 68 65 63 73 83 107 114 114 110 107 114 114 116 104 96 58 34 33 49 68 80 84 85 88 91 99 113 122 92 109 136 147 154 160 164 184 167